This is the latest recevied weather packets stored in our database for station/object VE8SKI. If no packets are shown the sender has not sent any weather packets the latest 10 day(s).
| Time | Temp. | Humidity | Pressure | Rain* | Wind** | Luminosity | Snow |
|---|---|---|---|---|---|---|---|
| 1778006917 | 5° C | 54% | 1022.8 hPa | 0 mm | 1.34 m/s, 201° | - | - |
| 1778006618 | 4.44° C | 54% | 1022.8 hPa | 0 mm | 2.68 m/s, 269° | - | - |
| 1778006319 | 5° C | 53% | 1022.9 hPa | 0 mm | 2.68 m/s, 259° | - | - |
| 1778006019 | 5° C | 53% | 1022.9 hPa | 0 mm | 3.13 m/s, 243° | - | - |
| 1778005719 | 4.44° C | 54% | 1022.8 hPa | 0 mm | 1.34 m/s, 240° | - | - |
| 1778005417 | 4.44° C | 53% | 1022.8 hPa | 0 mm | 3.13 m/s, 194° | - | - |
| 1778005118 | 4.44° C | 53% | 1022.9 hPa | 0 mm | 3.13 m/s, 208° | - | - |
| 1778004818 | 4.44° C | 52% | 1023 hPa | 0 mm | 3.13 m/s, 263° | - | - |
| 1778004519 | 4.44° C | 52% | 1023.1 hPa | 0 mm | 2.68 m/s, 266° | - | - |
| 1778004219 | 5° C | 52% | 1023.1 hPa | 0 mm | 2.24 m/s, 242° | - | - |
| 1778003920 | 5° C | 52% | 1023.3 hPa | 0 mm | 1.79 m/s, 288° | - | - |
| 1778003617 | 4.44° C | 52% | 1023.3 hPa | 0 mm | 2.24 m/s, 271° | - | - |
| 1778003318 | 4.44° C | 52% | 1023.4 hPa | 0 mm | 2.68 m/s, 294° | - | - |
| 1778003018 | 4.44° C | 52% | 1023.4 hPa | 0 mm | 2.68 m/s, 307° | - | - |
| 1778002719 | 4.44° C | 53% | 1023.5 hPa | 0 mm | 3.13 m/s, 180° | - | - |
| 1778002419 | 4.44° C | 54% | 1023.5 hPa | 0 mm | 2.24 m/s, 250° | - | - |
| 1778002120 | 4.44° C | 53% | 1023.5 hPa | 0 mm | 2.68 m/s, 218° | - | - |
| 1778001817 | 3.89° C | 52% | 1023.8 hPa | 0 mm | 3.58 m/s, 207° | - | - |
| 1778001518 | 4.44° C | 54% | 1023.8 hPa | 0 mm | 1.34 m/s, 201° | - | - |
| 1778001218 | 3.89° C | 54% | 1023.9 hPa | 0 mm | 2.24 m/s, 295° | - | - |
| 1778000919 | 4.44° C | 54% | 1024 hPa | 0 mm | 0.89 m/s, 278° | - | - |
| 1778000619 | 3.89° C | 54% | 1024 hPa | 0 mm | 3.13 m/s, 228° | - | - |
| 1778000320 | 3.89° C | 53% | 1024.1 hPa | 0 mm | 2.24 m/s, 222° | - | - |
| 1778000018 | 3.89° C | 55% | 1024.2 hPa | 0 mm | 0.89 m/s, 94° | - | - |
| 1777999718 | 3.89° C | 55% | 1024.3 hPa | 0 mm | 3.13 m/s, 240° | - | - |
* Rain latest hour (hover to see other rain measurements)
** Current wind speed in m/s (hover to see current wind gust speed)